Regional Weather Roundup
Issued by NWS Bismarck, ND

Home | Current Version | Previous Version | Text Only | Print | Product List | Glossary On
Versions: 1 2 3 4 5 6 7 8 9 10 11 12 13 14 15 16 17 18 19 20 21 22 23 24 25 26 27 28 29 30 31 32 33 34 35 36 37 38 39 40 41 42 43 44 45 46 47 48 49 50
000
ASUS43 KBIS 281710
RWRBIS

NWR BROADCAST TEXT
NATIONAL WEATHER SERVICE BISMARCK ND
1100 AM CST SUN DEC 28 2014

NOTE: "FAIR" INDICATES FEW OR NO CLOUDS BELOW 12,000 FEET WITH NO
SIGNIFICANT WEATHER AND/OR OBSTRUCTIONS TO VISIBILITY.


CITY           SKY/WX    TMP DP  RH WIND       PRES   REMARKS
WILLISTON      CLOUDY    11   4  73 E10       30.16R WCI  -3
MINOT          CLOUDY    -3  -7  82 N7        30.24R WCI -16
MINOT AFB      CLOUDY    -4  -6  92 NE3       30.25R
BISMARCK       CLOUDY    10   6  84 E14       30.19R WCI  -6
DICKINSON      CLOUDY    18  13  80 E13       30.03R HAZE    WCI   5
GARRISON         N/A      6   2  83 E12       30.18R WCI  -9
HETTINGER ARPT CLOUDY    17  14  88 E10       30.02R WCI   5
JAMESTOWN      CLOUDY     3  -3  76 NE9       30.23R WCI -12
BEACH          LGT SNOW  19  18  93 E13       30.02R WCI   7
CARRINGTON     CLOUDY     0  -2  92 MISG      30.25R
CROSBY         PTSUNNY    0  -4  85 NE9       30.23R WCI -16
HARVEY         CLOUDY     0  -2  92 E8        30.24S WCI -15
HAZEN          CLOUDY    10   7  85 E13       30.17R WCI  -5
LINTON         CLOUDY    14  12  92 E13       30.15R WCI   0
MANDAN         CLOUDY    10   7  85 E15       30.16R WCI  -6
OAKES            N/A      3   0  85 NE14      30.23R WCI -15
RUGBY          CLOUDY     0  -4  85 E6        30.26R WCI -12
STANLEY        CLOUDY     0  -4  85 NE9       30.16R WCI -16
WATFORD CITY   CLOUDY     9   5  85 E10G16    30.11R WCI  -6
$$

CITY           SKY/WX    TMP DP  RH WIND       PRES   REMARKS
GRAND FORKS    SUNNY     -5 -11  75 N7        30.35R WCI -19
GRAND FORKS AF SUNNY     -4 -10  77 N7        30.34R WCI -18
DEVILS LAKE    CLOUDY    -2  -9  71 NE5       30.27R WCI -12
FARGO          SUNNY      1  -6  72 N14       30.30R WCI -17
CANDO          FAIR      -2  -8  78 CALM      30.29R
CAVALIER       FAIR      -6 -13  71 N8        30.35R WCI -21
GWINNER        MOSUNNY    5  -2  72 N15       30.24S WCI -13
LANGDON        FAIR      -8 -15  71 N6        30.25R WCI -21
ROLLA          FAIR      -6  -9  84 CALM      30.24R
WALHALLA         N/A     -4 -11  71 NW9       30.35R WCI -20
$$

CITY           SKY/WX    TMP DP  RH WIND       PRES   REMARKS
ABERDEEN       FLURRIES  13   8  81 NE14      30.20R WCI  -2
MOBRIDGE       CLOUDY    19  14  81 E12       30.10R WCI   7
BUFFALO          N/A     22  14  71 E5        29.90R WCI  16
RAPID CITY     CLOUDY    19  13  77 CALM      29.96R
GLASGOW        CLOUDY    18  12  77 NE15      30.07R WCI   4
SIDNEY         CLOUDY    18  10  73 NE13      30.12R WCI   4
WOLF POINT     CLOUDY    15   9  76 NE24      30.11R WCI  -4
GLENDIVE       CLOUDY    19  18  93 NE15      30.02R WCI   5
MILES CITY     LGT SNOW  24  21  88 NE5       29.96R FOG     WCI  18
BAKER          CLOUDY    23  15  71 E8        29.96S WCI  14
$$

CITY           SKY/WX    TMP DP  RH WIND       PRES   REMARKS
BILLINGS       CLOUDY    25  13  60 SW16      29.89R WCI  12
GREAT FALLS    SNOW      14  12  92 N23       30.00R VSB 1/2 WCI  -5
ESTEVAN        PTSUNNY   -4  -9  77 NE8       30.24R WCI -19
$$



USA.gov is the U.S. government's official web portal to all federal, state and local government web resources and services.